Erie, PA

1:08 AM EST on December 11, 2019 (GMT -0500)
Erie International

Weather History for KERI - October, 2019

Change the Weather History Date:

Saturday, October 12, 2019

  Actual Average Record
Temperature  
Mean Temperature 54 °F 54 °F  
Max Temperature 66 °F 62 °F 84 °F (1893)
Min Temperature 43 °F 46 °F 30 °F (1891)
Degree Days  
Heating Degree Days 10 11  
Month to date heating degree days 60 114  
Since 1 July heating degree days 72 238  
Cooling Degree Days 0 0  
Month to date cooling degree days 22 7  
Year to date cooling degree days 847 636  
Growing Degree Days 4 (Base 50)    
Moisture  
Dew Point 43 °F    
Average Humidity 68    
Maximum Humidity 93    
Minimum Humidity 34    
Precipitation  
Precipitation 0.06 in 0.14 in 2.31 in (1946)
Month to date precipitation 0.63 1.73  
Year to date precipitation 30.26 32.17  
Snow  
Snow 0.00 in 0.00 in - ()
Month to date snowfall 0.0 0.0  
Since 1 July snowfall 0.0 0.0  
Since 1 September snowfall 0.0 0.0  
Snow Depth 0.00 in    
Sea Level Pressure  
Sea Level Pressure 29.99 in    
Wind  
Wind Speed 11 mph ()    
Max Wind Speed 21 mph    
Max Gust Speed 31 mph    
Visibility 9.0 miles    
Events Rain    
T = Trace of Precipitation, MM = Missing Value Source: Averaged Metar Reports

Daily Weather History Graph

Daily Weather History Graph

Search for Another Location

Airport or City:

Astronomy

Oct. 12, 2019 Rise Set
Actual Time 7:29 AM EDT 6:44 PM EDT
Civil Twilight 7:01 AM EDT 7:12 PM EDT
Nautical Twilight 6:29 AM EDT 7:44 PM EDT
Astronomical Twilight 5:56 AM EDT 8:16 PM EDT
Moon 6:41 PM EDT (10/12) 6:02 AM EDT (10/12)
Length of Visible Light 12h 10m
Length of Day
11h 14m
Waxing Gibbous, 99% of the Moon is Illuminated
Oct 12
Waxing Gibbous
Oct 13
Full
Oct 21
Last Quarter
Oct 27
New
Nov 4
First Quarter

Hourly Weather History & Observations

Time (EDT) Temp. Windchill Dew Point Humidity Pressure Visibility Wind Dir Wind Speed Gust Speed Precip Events Conditions
12:51 AM 66.0 °F - 37.0 °F 34% 29.87 in 10.0 mi SSE 17.3 mph 25.3 mph 0.00 in Rain Light Rain
1:51 AM 64.0 °F - 41.0 °F 43% 29.87 in 10.0 mi SSE 16.1 mph 25.3 mph 0.00 in Rain Light Rain
2:51 AM 64.9 °F - 41.0 °F 42% 29.87 in 10.0 mi South 12.7 mph - 0.00 in Rain Light Rain
3:51 AM 64.9 °F - 44.1 °F 47% 29.86 in 10.0 mi South 11.5 mph - 0.00 in   Overcast
4:51 AM 63.0 °F - 45.0 °F 52% 29.90 in 10.0 mi WSW 11.5 mph 18.4 mph 0.00 in Rain Light Rain
5:14 AM 59.0 °F - 55.0 °F 87% 29.91 in 10.0 mi West 13.8 mph 20.7 mph 0.00 in Rain Light Rain
5:24 AM 57.9 °F - 54.0 °F 87% 29.91 in 8.0 mi West 12.7 mph - 0.00 in Rain Light Rain
5:51 AM 57.0 °F - 53.1 °F 87% 29.91 in 4.0 mi WSW 9.2 mph - 0.01 in Rain Light Rain
6:18 AM 57.0 °F - 52.0 °F 83% 29.92 in 9.0 mi West 10.4 mph - 0.01 in Rain Light Rain
6:51 AM 55.9 °F - 51.1 °F 84% 29.94 in 6.0 mi West 10.4 mph 19.6 mph 0.02 in Rain Light Rain
7:10 AM 55.9 °F - 52.0 °F 87% 29.94 in 7.0 mi WSW 8.1 mph - 0.01 in Rain Light Rain
7:51 AM 54.0 °F - 51.1 °F 90% 29.95 in 5.0 mi West 13.8 mph 19.6 mph 0.03 in Rain Light Rain
8:16 AM 53.1 °F - 48.9 °F 86% 29.98 in 7.0 mi West 11.5 mph 23.0 mph 0.00 in Rain Light Rain
8:51 AM 52.0 °F - 48.0 °F 86% 29.99 in 4.0 mi West 11.5 mph - 0.00 in Rain Light Rain
9:00 AM 52.0 °F - 46.9 °F 83% 29.99 in 8.0 mi West 9.2 mph - 0.00 in Rain Light Rain
9:42 AM 52.0 °F - 46.0 °F 80% 30.00 in 10.0 mi West 8.1 mph 18.4 mph 0.00 in Rain Light Rain
9:51 AM 52.0 °F - 46.0 °F 80% 30.01 in 10.0 mi West 9.2 mph 19.6 mph 0.00 in Rain Light Rain
10:51 AM 53.1 °F - 46.0 °F 77% 30.01 in 10.0 mi WSW 8.1 mph - 0.00 in Rain Light Rain
11:51 AM 54.0 °F - 43.0 °F 66% 30.02 in 10.0 mi West 13.8 mph 20.7 mph 0.00 in Rain Light Rain
12:29 PM 55.0 °F - 43.0 °F 64% 30.03 in 10.0 mi WSW 16.1 mph 26.5 mph 0.00 in Rain Light Rain
12:51 PM 53.1 °F - 41.0 °F 64% 30.04 in 10.0 mi West 15.0 mph 28.8 mph 0.00 in Rain Light Rain
1:51 PM 53.1 °F - 37.9 °F 57% 30.04 in 10.0 mi West 12.7 mph 20.7 mph 0.00 in Rain Light Rain
2:51 PM 53.1 °F - 37.0 °F 55% 30.04 in 10.0 mi West 11.5 mph 23.0 mph 0.00 in Rain Light Rain
3:51 PM 53.1 °F - 37.0 °F 55% 30.04 in 10.0 mi WSW 13.8 mph 21.9 mph 0.00 in Rain Light Rain
4:51 PM 54.0 °F - 37.0 °F 53% 30.04 in 10.0 mi WSW 9.2 mph - 0.00 in Rain Light Rain
5:02 PM 53.1 °F - 37.0 °F 55% 30.03 in 10.0 mi West 10.4 mph - 0.00 in   Clear
5:51 PM 53.1 °F - 37.0 °F 55% 30.05 in 10.0 mi WSW 8.1 mph - 0.00 in   Clear
6:51 PM 50.0 °F - 37.0 °F 61% 30.05 in 10.0 mi SSW 4.6 mph - N/A   Clear
7:51 PM 45.0 °F 41.2 °F 37.0 °F 74% 30.06 in 10.0 mi South 6.9 mph - N/A   Clear
8:51 PM 45.0 °F 41.2 °F 33.1 °F 63% 30.07 in 10.0 mi South 6.9 mph - N/A   Clear
9:51 PM 44.1 °F 40.1 °F 33.1 °F 65% 30.07 in 10.0 mi South 6.9 mph - N/A   Clear
10:51 PM 43.0 °F 37.7 °F 33.1 °F 68% 30.06 in 10.0 mi South 9.2 mph - N/A   Clear
11:51 PM 45.0 °F 39.7 °F 32.0 °F 60% 30.05 in 10.0 mi South 10.4 mph - N/A   Clear